Time,TemperatureF,DewpointF,PressureIn,WindDirection,WindDirectionDegrees,WindSpeedMPH,WindSpeedGustMPH,Humidity,HourlyPrecipIn,Conditions,Clouds,dailyrainin,SoftwareType,DateUTC
2017-01-23 00:05:00,51.0,51.0,27.06,ENE,67,0.3,1.3,100,-99.99,,,0.01,Rainwise +Telemet,2017-01-23 05:05:00,
2017-01-23 00:10:00,51.0,51.0,27.06,ENE,67,0.4,1.0,100,-99.99,,,0.02,Rainwise +Telemet,2017-01-23 05:10:00,
2017-01-23 00:15:00,51.0,51.0,27.06,ENE,67,0.3,0.8,100,-99.99,,,0.03,Rainwise +Telemet,2017-01-23 05:15:00,
2017-01-23 00:20:00,51.0,51.0,27.06,ENE,62,1.3,2.5,100,-99.99,,,0.04,Rainwise +Telemet,2017-01-23 05:20:00,
2017-01-23 00:25:00,51.0,51.0,27.05,ENE,67,1.2,2.8,100,-99.99,,,0.04,Rainwise +Telemet,2017-01-23 05:25:00,
2017-01-23 00:35:00,51.0,51.0,27.05,NE,51,0.9,2.5,100,-99.99,,,0.07,Rainwise +Telemet,2017-01-23 05:35:00,
2017-01-23 00:40:00,51.0,51.0,27.05,NE,45,0.8,3.0,100,-99.99,,,0.08,Rainwise +Telemet,2017-01-23 05:40:00,
2017-01-23 00:45:00,51.0,51.0,27.03,South,186,0.4,0.8,100,-99.99,,,0.09,Rainwise +Telemet,2017-01-23 05:45:00,
2017-01-23 00:55:00,51.0,51.0,27.04,ENE,62,1.7,3.0,100,-99.99,,,0.20,Rainwise +Telemet,2017-01-23 05:55:00,
2017-01-23 01:00:00,51.0,51.0,27.05,NE,45,0.1,0.8,100,-99.99,,,0.23,Rainwise +Telemet,2017-01-23 06:00:00,
2017-01-23 01:05:00,51.0,51.0,27.03,ENE,75,1.8,3.8,100,-99.99,,,0.24,Rainwise +Telemet,2017-01-23 06:05:00,
2017-01-23 01:10:00,50.0,50.0,27.03,North,7,1.8,3.8,100,-99.99,,,0.25,Rainwise +Telemet,2017-01-23 06:10:00,
2017-01-23 01:20:00,50.0,50.0,27.02,NE,45,1.3,3.3,100,-99.99,,,0.25,Rainwise +Telemet,2017-01-23 06:20:00,
2017-01-23 01:25:00,50.0,50.0,27.01,NE,46,0.6,1.5,100,-99.99,,,0.26,Rainwise +Telemet,2017-01-23 06:25:00,
2017-01-23 01:30:00,49.0,49.0,27.01,SSE,157,0.0,0.3,100,-99.99,,,0.29,Rainwise +Telemet,2017-01-23 06:30:00,
2017-01-23 01:35:00,49.0,49.0,27.02,West,270,1.8,3.0,100,-99.99,,,0.33,Rainwise +Telemet,2017-01-23 06:35:00,
2017-01-23 01:40:00,49.0,49.0,27.02,West,270,0.2,1.3,100,-99.99,,,0.47,Rainwise +Telemet,2017-01-23 06:40:00,
2017-01-23 01:45:00,49.0,49.0,27.04,NNW,334,0.0,0.0,100,-99.99,,,0.54,Rainwise +Telemet,2017-01-23 06:45:00,
2017-01-23 01:50:00,49.0,49.0,27.05,North,6,0.1,0.8,100,-99.99,,,0.59,Rainwise +Telemet,2017-01-23 06:50:00,
2017-01-23 01:55:00,49.0,49.0,27.03,NNE,22,1.3,2.5,100,-99.99,,,0.60,Rainwise +Telemet,2017-01-23 06:55:00,
2017-01-23 02:00:00,49.0,49.0,27.03,NNE,22,0.2,0.5,100,-99.99,,,0.61,Rainwise +Telemet,2017-01-23 07:00:00,
2017-01-23 02:10:00,49.0,49.0,27.03,SSW,202,0.0,0.0,100,-99.99,,,0.68,Rainwise +Telemet,2017-01-23 07:10:00,
2017-01-23 02:15:00,50.0,50.0,27.03,SSW,202,0.0,0.0,100,-99.99,,,0.69,Rainwise +Telemet,2017-01-23 07:15:00,
2017-01-23 02:20:00,49.9,49.6,27.03,SSW,202,0.0,0.3,99,-99.99,,,0.70,Rainwise +Telemet,2017-01-23 07:20:00,
2017-01-23 02:25:00,50.0,50.0,27.04,WNW,292,0.9,2.3,100,-99.99,,,0.70,Rainwise +Telemet,2017-01-23 07:25:00,
2017-01-23 02:30:00,49.0,49.0,27.05,West,270,0.6,0.8,100,-99.99,,,0.75,Rainwise +Telemet,2017-01-23 07:30:00,
2017-01-23 02:40:00,49.0,49.0,27.06,West,270,0.9,2.3,100,-99.99,,,0.77,Rainwise +Telemet,2017-01-23 07:40:00,
2017-01-23 02:50:00,49.0,49.0,27.05,West,270,0.0,0.0,100,-99.99,,,0.77,Rainwise +Telemet,2017-01-23 07:50:00,
2017-01-23 02:55:00,49.0,49.0,27.05,West,270,0.0,0.0,100,-99.99,,,0.77,Rainwise +Telemet,2017-01-23 07:55:00,
2017-01-23 03:00:00,49.0,49.0,27.05,West,270,0.0,0.0,100,-99.99,,,0.77,Rainwise +Telemet,2017-01-23 08:00:00,
2017-01-23 03:10:00,48.0,48.0,27.03,West,270,0.0,0.0,100,-99.99,,,0.78,Rainwise +Telemet,2017-01-23 08:10:00,
2017-01-23 03:20:00,48.0,48.0,27.02,West,270,0.0,0.0,100,-99.99,,,0.78,Rainwise +Telemet,2017-01-23 08:20:00,
2017-01-23 03:25:00,48.0,48.0,27.02,West,270,0.0,0.0,100,-99.99,,,0.78,Rainwise +Telemet,2017-01-23 08:25:00,
2017-01-23 03:30:00,48.0,48.0,27.02,WNW,292,1.0,1.5,100,-99.99,,,0.78,Rainwise +Telemet,2017-01-23 08:30:00,
2017-01-23 03:40:00,48.0,48.0,27.01,NW,315,1.0,3.0,100,-99.99,,,0.78,Rainwise +Telemet,2017-01-23 08:40:00,
2017-01-23 03:45:00,48.0,48.0,27.02,South,175,0.6,2.0,100,-99.99,,,0.78,Rainwise +Telemet,2017-01-23 08:45:00,
2017-01-23 03:50:00,48.0,48.0,27.02,SSW,203,0.5,2.3,100,-99.99,,,0.78,Rainwise +Telemet,2017-01-23 08:50:00,
2017-01-23 03:55:00,48.0,48.0,27.03,SW,225,0.1,1.0,100,-99.99,,,0.78,Rainwise +Telemet,2017-01-23 08:55:00,
2017-01-23 04:00:00,48.0,48.0,27.03,SW,225,0.2,1.5,100,-99.99,,,0.78,Rainwise +Telemet,2017-01-23 09:00:00,
2017-01-23 04:10:00,47.0,47.0,27.02,SE,135,0.1,1.0,100,-99.99,,,0.78,Rainwise +Telemet,2017-01-23 09:10:00,
2017-01-23 04:15:00,47.0,47.0,27.03,SE,135,0.0,0.0,100,-99.99,,,0.78,Rainwise +Telemet,2017-01-23 09:15:00,
2017-01-23 04:20:00,47.0,47.0,27.03,WNW,292,0.6,2.0,100,-99.99,,,0.78,Rainwise +Telemet,2017-01-23 09:20:00,
2017-01-23 04:25:00,47.0,47.0,27.03,WNW,292,0.3,0.5,100,-99.99,,,0.78,Rainwise +Telemet,2017-01-23 09:25:00,
2017-01-23 04:30:00,47.0,47.0,27.02,WNW,292,0.0,0.0,100,-99.99,,,0.78,Rainwise +Telemet,2017-01-23 09:30:00,
2017-01-23 04:40:00,45.9,45.6,27.02,SSW,202,0.0,0.0,99,-99.99,,,0.78,Rainwise +Telemet,2017-01-23 09:40:00,
2017-01-23 04:50:00,46.0,46.0,27.02,SSW,202,0.0,0.0,100,-99.99,,,0.78,Rainwise +Telemet,2017-01-23 09:50:00,
2017-01-23 05:00:00,46.0,46.0,27.02,SSW,202,0.0,0.0,100,-99.99,,,0.78,Rainwise +Telemet,2017-01-23 10:00:00,
2017-01-23 05:10:00,46.0,46.0,27.03,SSW,202,0.0,0.0,100,-99.99,,,0.78,Rainwise +Telemet,2017-01-23 10:10:00,
2017-01-23 05:15:00,46.0,46.0,27.03,SSW,202,0.0,0.0,100,-99.99,,,0.78,Rainwise +Telemet,2017-01-23 10:15:00,
2017-01-23 05:20:00,46.0,46.0,27.03,West,270,1.0,3.0,100,-99.99,,,0.78,Rainwise +Telemet,2017-01-23 10:20:00,
2017-01-23 05:30:00,46.0,46.0,27.03,West,270,1.7,2.5,100,-99.99,,,0.78,Rainwise +Telemet,2017-01-23 10:30:00,
2017-01-23 05:35:00,46.0,46.0,27.03,West,270,0.2,0.8,100,-99.99,,,0.78,Rainwise +Telemet,2017-01-23 10:35:00,
2017-01-23 05:40:00,46.0,46.0,27.03,West,270,0.0,0.0,100,-99.99,,,0.78,Rainwise +Telemet,2017-01-23 10:40:00,
2017-01-23 05:50:00,46.0,46.0,27.03,West,270,0.0,0.0,100,-99.99,,,0.78,Rainwise +Telemet,2017-01-23 10:50:00,
2017-01-23 06:00:00,45.9,45.6,27.02,West,270,0.0,0.0,99,-99.99,,,0.78,Rainwise +Telemet,2017-01-23 11:00:00,
2017-01-23 06:10:00,45.0,45.0,27.03,West,270,0.0,0.0,100,-99.99,,,0.78,Rainwise +Telemet,2017-01-23 11:10:00,
2017-01-23 06:15:00,45.0,45.0,27.03,West,270,0.0,0.0,100,-99.99,,,0.78,Rainwise +Telemet,2017-01-23 11:15:00,
2017-01-23 06:20:00,45.0,45.0,27.03,West,270,0.0,0.0,100,-99.99,,,0.78,Rainwise +Telemet,2017-01-23 11:20:00,
2017-01-23 06:25:00,45.0,45.0,27.03,West,270,0.0,0.0,100,-99.99,,,0.78,Rainwise +Telemet,2017-01-23 11:25:00,
2017-01-23 06:30:00,45.0,45.0,27.03,West,270,0.0,0.0,100,-99.99,,,0.78,Rainwise +Telemet,2017-01-23 11:30:00,
2017-01-23 06:35:00,45.0,45.0,27.03,West,270,0.0,0.0,100,-99.99,,,0.78,Rainwise +Telemet,2017-01-23 11:35:00,
2017-01-23 06:40:00,45.0,45.0,27.03,West,270,0.0,0.0,100,-99.99,,,0.78,Rainwise +Telemet,2017-01-23 11:40:00,
2017-01-23 06:45:00,45.0,45.0,27.03,West,270,0.0,0.0,100,-99.99,,,0.78,Rainwise +Telemet,2017-01-23 11:45:00,
2017-01-23 06:50:00,44.9,44.6,27.02,West,270,0.0,0.0,99,-99.99,,,0.78,Rainwise +Telemet,2017-01-23 11:50:00,
2017-01-23 07:00:00,45.0,45.0,27.03,West,270,0.0,0.0,100,-99.99,,,0.78,Rainwise +Telemet,2017-01-23 12:00:00,
2017-01-23 07:10:00,45.0,45.0,27.03,West,270,0.0,0.0,100,-99.99,,,0.78,Rainwise +Telemet,2017-01-23 12:10:00,
2017-01-23 07:15:00,45.0,45.0,27.03,West,270,0.0,0.0,100,-99.99,,,0.78,Rainwise +Telemet,2017-01-23 12:15:00,
2017-01-23 07:20:00,45.0,45.0,27.03,West,270,1.3,2.8,100,-99.99,,,0.78,Rainwise +Telemet,2017-01-23 12:20:00,
2017-01-23 07:30:00,45.0,45.0,27.03,West,270,0.0,0.0,100,-99.99,,,0.78,Rainwise +Telemet,2017-01-23 12:30:00,
2017-01-23 07:35:00,45.0,45.0,27.04,West,270,0.0,0.0,100,-99.99,,,0.78,Rainwise +Telemet,2017-01-23 12:35:00,
2017-01-23 07:40:00,45.0,45.0,27.05,West,270,0.0,0.0,100,-99.99,,,0.78,Rainwise +Telemet,2017-01-23 12:40:00,
2017-01-23 07:45:00,45.0,45.0,27.05,WSW,248,0.9,3.0,100,-99.99,,,0.78,Rainwise +Telemet,2017-01-23 12:45:00,
2017-01-23 07:50:00,46.0,46.0,27.05,South,174,0.0,0.3,100,-99.99,,,0.78,Rainwise +Telemet,2017-01-23 12:50:00,
2017-01-23 08:00:00,46.0,46.0,27.05,ESE,116,0.4,1.5,100,-99.99,,,0.78,Rainwise +Telemet,2017-01-23 13:00:00,
2017-01-23 08:10:00,46.0,46.0,27.06,NE,45,0.4,1.5,100,-99.99,,,0.79,Rainwise +Telemet,2017-01-23 13:10:00,
2017-01-23 08:15:00,46.0,46.0,27.06,NE,45,0.3,0.8,100,-99.99,,,0.80,Rainwise +Telemet,2017-01-23 13:15:00,
2017-01-23 08:20:00,46.0,46.0,27.06,ENE,61,0.3,0.8,100,-99.99,,,0.80,Rainwise +Telemet,2017-01-23 13:20:00,
2017-01-23 08:30:00,46.0,46.0,27.06,NNE,22,0.8,2.8,100,-99.99,,,0.81,Rainwise +Telemet,2017-01-23 13:30:00,
2017-01-23 08:40:00,46.0,46.0,27.06,NNE,22,0.0,0.0,100,-99.99,,,0.81,Rainwise +Telemet,2017-01-23 13:40:00,
2017-01-23 08:45:00,46.0,46.0,27.06,NNE,22,0.0,0.0,100,-99.99,,,0.82,Rainwise +Telemet,2017-01-23 13:45:00,
2017-01-23 08:55:00,46.0,46.0,27.06,NNE,22,0.0,0.0,100,-99.99,,,0.82,Rainwise +Telemet,2017-01-23 13:55:00,
2017-01-23 09:00:00,46.0,46.0,27.06,NNE,22,0.0,0.0,100,-99.99,,,0.83,Rainwise +Telemet,2017-01-23 14:00:00,
2017-01-23 09:05:00,46.0,46.0,27.07,NNE,22,0.0,0.0,100,-99.99,,,0.83,Rainwise +Telemet,2017-01-23 14:05:00,
2017-01-23 09:10:00,46.0,46.0,27.08,NNE,22,0.0,0.0,100,-99.99,,,0.83,Rainwise +Telemet,2017-01-23 14:10:00,